Location: Guferjoch
(46.7462°N, 8.4506°E)
Time: 23:12:39
(UTC+00:00)

Okean 1-7 - Pass Details

Date: 14 July 2020
Orbit: 591 x 618 km, 82.5° (Epoch: 14 August)

Event Time Altitude Azimuth Distance (km) Brightness Sun altitude
Rises 01:11:50 0° 346° (NNW) 2,905 7.3 -18.0°
Reaches altitude 10° 01:14:07 10° 341° (NNW) 1,994 6.3 -17.8°
Maximum altitude 01:18:23 49° 267° (W) 801 3.4 -17.5°
Enters shadow 01:19:47 35° 216° (SW) 999 3.6 -17.4°
